• en Suisse
  • Liste des pays
  • À 7 jours
  • Température de l'eau
  • Carte satellitaire
  • Carte météo
  • Widgets météo
  • user-avatar
    Se connecter

    Météo par heure à Ramadi

    Ce jour, 21 Octobre, Dimanche

    Heure Température Précipitation Vent Pression Humidité
    00:00 +30°C° 0 mm 5 m/s 754 mmHg 36%
    01:00 +30°C° 0.1 mm 5 m/s 754 mmHg 37%
    02:00 +29°C° 0.1 mm 5 m/s 754 mmHg 38%
    03:00 +29°C° 0.1 mm 5 m/s 754 mmHg 39%
    04:00 +29°C° 0 mm 5 m/s 754 mmHg 38%
    05:00 +28°C° 0 mm 5 m/s 754 mmHg 37%
    06:00 +28°C° 0 mm 5 m/s 754 mmHg 36%
    07:00 +29°C° 0 mm 6 m/s 754 mmHg 34%
    08:00 +30°C° 0 mm 7 m/s 754 mmHg 32%
    09:00 +32°C° 0 mm 8 m/s 754 mmHg 30%
    10:00 +33°C° 0.5 mm 8 m/s 754 mmHg 30%
    11:00 +34°C° 0.5 mm 7 m/s 754 mmHg 30%
    12:00 +35°C° 0.5 mm 7 m/s 753 mmHg 30%
    13:00 +35°C° 0.4 mm 6 m/s 753 mmHg 31%
    14:00 +35°C° 0.4 mm 6 m/s 753 mmHg 31%
    15:00 +35°C° 0.4 mm 6 m/s 752 mmHg 32%
    16:00 +33°C° 0.9 mm 8 m/s 752 mmHg 38%
    17:00 +32°C° 0.9 mm 10 m/s 752 mmHg 44%
    18:00 +29°C° 0.9 mm 12 m/s 752 mmHg 50%
    19:00 +29°C° 0.5 mm 11 m/s 752 mmHg 50%
    20:00 +28°C° 0.5 mm 10 m/s 753 mmHg 51%
    21:00 +28°C° 0.5 mm 9 m/s 753 mmHg 52%
    22:00 +28°C° 0 mm 8 m/s 754 mmHg 52%
    23:00 +28°C° 0 mm 6 m/s 754 mmHg 52%

    Demain, 22 Octobre, Lundi

    Heure Température Précipitation Vent Pression Humidité
    00:00 +28°C° 0 mm 5 m/s 754 mmHg 52%
    01:00 +28°C° 0 mm 5 m/s 754 mmHg 53%
    02:00 +28°C° 0 mm 5 m/s 754 mmHg 54%
    03:00 +27°C° 0 mm 4 m/s 754 mmHg 55%
    04:00 +27°C° 0 mm 4 m/s 754 mmHg 57%
    05:00 +27°C° 0 mm 4 m/s 755 mmHg 59%
    06:00 +27°C° 0 mm 3 m/s 755 mmHg 62%
    07:00 +27°C° 0.3 mm 4 m/s 755 mmHg 60%
    08:00 +28°C° 0.3 mm 4 m/s 756 mmHg 58%
    09:00 +28°C° 0.3 mm 5 m/s 756 mmHg 56%
    10:00 +29°C° 0 mm 4 m/s 756 mmHg 53%
    11:00 +30°C° 0 mm 4 m/s 756 mmHg 49%
    12:00 +31°C° 0 mm 3 m/s 756 mmHg 45%
    13:00 +33°C° 0 mm 3 m/s 756 mmHg 43%
    14:00 +32°C° 0 mm 2 m/s 756 mmHg 41%
    15:00 +33°C° 0 mm 1 m/s 755 mmHg 39%
    16:00 +32°C° 0 mm 1 m/s 755 mmHg 41%
    17:00 +32°C° 0 mm 2 m/s 755 mmHg 42%
    18:00 +31°C° 0 mm 2 m/s 755 mmHg 44%
    19:00 +31°C° 0 mm 2 m/s 756 mmHg 46%
    20:00 +30°C° 0 mm 2 m/s 756 mmHg 49%
    21:00 +30°C° 0 mm 3 m/s 756 mmHg 51%
    22:00 +29°C° 0.1 mm 3 m/s 756 mmHg 53%
    23:00 +29°C° 0.1 mm 3 m/s 757 mmHg 56%

    Après-demain, 23 Octobre, Mardi

    Heure Température Précipitation Vent Pression Humidité
    00:00 +29°C° 0.1 mm 2 m/s 757 mmHg 58%
    01:00 +28°C° 0 mm 2 m/s 757 mmHg 59%
    02:00 +28°C° 0 mm 2 m/s 757 mmHg 61%
    03:00 +28°C° 0 mm 2 m/s 757 mmHg 62%
    04:00 +27°C° 0 mm 2 m/s 757 mmHg 63%
    05:00 +27°C° 0 mm 2 m/s 757 mmHg 64%
    06:00 +27°C° 0 mm 2 m/s 757 mmHg 65%
    07:00 +27°C° 0 mm 2 m/s 757 mmHg 62%
    08:00 +28°C° 0 mm 2 m/s 758 mmHg 59%
    09:00 +29°C° 0 mm 2 m/s 758 mmHg 56%
    10:00 +30°C° 0 mm 2 m/s 758 mmHg 52%
    11:00 +31°C° 0 mm 2 m/s 758 mmHg 48%
    12:00 +31°C° 0 mm 2 m/s 758 mmHg 44%
    13:00 +32°C° 0 mm 2 m/s 757 mmHg 41%
    14:00 +33°C° 0 mm 3 m/s 757 mmHg 39%
    15:00 +34°C° 0 mm 4 m/s 757 mmHg 37%
    16:00 +33°C° 0 mm 4 m/s 756 mmHg 39%
    17:00 +31°C° 0 mm 3 m/s 756 mmHg 41%
    18:00 +31°C° 0 mm 3 m/s 756 mmHg 43%
    19:00 +30°C° 0 mm 2 m/s 756 mmHg 45%
    20:00 +30°C° 0 mm 2 m/s 756 mmHg 46%
    21:00 +29°C° 0 mm 1 m/s 757 mmHg 48%
    22:00 +29°C° 0 mm 2 m/s 756 mmHg 48%
    23:00 +29°C° 0 mm 2 m/s 756 mmHg 48%

    24 Octobre, Mercredi

    Heure Température Précipitation Vent Pression Humidité
    00:00 +28°C° 0 mm 2 m/s 756 mmHg 48%
    01:00 +28°C° 0 mm 2 m/s 755 mmHg 49%
    02:00 +28°C° 0 mm 2 m/s 755 mmHg 50%
    03:00 +28°C° 0 mm 2 m/s 755 mmHg 50%
    04:00 +27°C° 0 mm 3 m/s 755 mmHg 51%
    05:00 +27°C° 0 mm 3 m/s 755 mmHg 51%
    06:00 +27°C° 0 mm 3 m/s 755 mmHg 52%
    07:00 +28°C° 0 mm 3 m/s 755 mmHg 49%
    08:00 +29°C° 0 mm 3 m/s 755 mmHg 45%
    09:00 +30°C° 0 mm 3 m/s 755 mmHg 42%
    10:00 +31°C° 0 mm 3 m/s 755 mmHg 38%
    11:00 +33°C° 0 mm 3 m/s 755 mmHg 35%
    12:00 +34°C° 0 mm 3 m/s 754 mmHg 31%
    13:00 +34°C° 0 mm 3 m/s 754 mmHg 30%
    14:00 +35°C° 0 mm 3 m/s 753 mmHg 28%
    15:00 +35°C° 0 mm 2 m/s 753 mmHg 27%
    16:00 +34°C° 0.1 mm 2 m/s 752 mmHg 29%
    17:00 +32°C° 0.1 mm 2 m/s 752 mmHg 32%
    18:00 +31°C° 0.1 mm 2 m/s 752 mmHg 34%
    19:00 +31°C° 0.4 mm 2 m/s 752 mmHg 36%
    20:00 +30°C° 0.4 mm 2 m/s 752 mmHg 38%
    21:00 +30°C° 0.4 mm 2 m/s 752 mmHg 41%
    22:00 +29°C° 0.7 mm 3 m/s 752 mmHg 43%
    23:00 +28°C° 0.7 mm 3 m/s 751 mmHg 45%

    25 Octobre, Jeudi

    Heure Température Précipitation Vent Pression Humidité
    00:00 +28°C° 0.7 mm 4 m/s 751 mmHg 47%
    01:00 +28°C° 0.1 mm 4 m/s 751 mmHg 47%
    02:00 +28°C° 0.1 mm 5 m/s 750 mmHg 47%
    03:00 +28°C° 0.1 mm 5 m/s 750 mmHg 47%
    04:00 +28°C° 0 mm 6 m/s 750 mmHg 46%
    05:00 +28°C° 0 mm 6 m/s 750 mmHg 45%
    06:00 +28°C° 0 mm 7 m/s 750 mmHg 44%
    07:00 +29°C° 0 mm 7 m/s 750 mmHg 41%
    08:00 +31°C° 0 mm 8 m/s 750 mmHg 38%
    09:00 +31°C° 0 mm 8 m/s 750 mmHg 35%
    10:00 +32°C° 0 mm 7 m/s 750 mmHg 32%
    11:00 +33°C° 0 mm 6 m/s 750 mmHg 30%
    12:00 +34°C° 0 mm 5 m/s 749 mmHg 28%
    13:00 +34°C° 0 mm 4 m/s 749 mmHg 28%
    14:00 +34°C° 0 mm 4 m/s 749 mmHg 29%
    15:00 +34°C° 0 mm 3 m/s 748 mmHg 29%
    16:00 +33°C° 0 mm 3 m/s 749 mmHg 31%
    17:00 +33°C° 0 mm 3 m/s 749 mmHg 33%
    18:00 +31°C° 0 mm 3 m/s 749 mmHg 36%
    19:00 +31°C° 0 mm 3 m/s 749 mmHg 37%
    20:00 +30°C° 0 mm 3 m/s 750 mmHg 38%
    21:00 +30°C° 0 mm 3 m/s 750 mmHg 39%
    22:00 +30°C° 0.2 mm 4 m/s 750 mmHg 40%
    23:00 +29°C° 0.2 mm 4 m/s 750 mmHg 42%

    26 Octobre, Vendredi

    Heure Température Précipitation Vent Pression Humidité
    00:00 +29°C° 0.2 mm 5 m/s 749 mmHg 44%
    01:00 +28°C° 0.1 mm 5 m/s 750 mmHg 46%
    02:00 +28°C° 0.1 mm 5 m/s 750 mmHg 47%
    03:00 +28°C° 0.1 mm 5 m/s 750 mmHg 48%
    04:00 +28°C° 0 mm 4 m/s 750 mmHg 49%
    05:00 +28°C° 0 mm 4 m/s 751 mmHg 50%
    06:00 +28°C° 0 mm 3 m/s 751 mmHg 51%
    07:00 +29°C° 0 mm 3 m/s 751 mmHg 49%
    08:00 +29°C° 0 mm 3 m/s 752 mmHg 46%
    09:00 +30°C° 0 mm 2 m/s 752 mmHg 44%
    10:00 +30°C° 0 mm 3 m/s 752 mmHg 41%
    11:00 +31°C° 0 mm 3 m/s 752 mmHg 38%
    12:00 +31°C° 0 mm 3 m/s 752 mmHg 35%
    13:00 +33°C° 0 mm 3 m/s 752 mmHg 33%
    14:00 +33°C° 0 mm 3 m/s 751 mmHg 32%
    15:00 +33°C° 0 mm 4 m/s 751 mmHg 30%
    16:00 +33°C° 0 mm 3 m/s 751 mmHg 31%
    17:00 +31°C° 0 mm 3 m/s 752 mmHg 31%
    18:00 +30°C° 0 mm 3 m/s 752 mmHg 32%
    19:00 +30°C° 0 mm 3 m/s 753 mmHg 33%
    20:00 +30°C° 0 mm 3 m/s 753 mmHg 34%
    21:00 +29°C° 0 mm 4 m/s 754 mmHg 34%
    22:00 +28°C° 0 mm 5 m/s 754 mmHg 36%
    23:00 +27°C° 0 mm 6 m/s 754 mmHg 37%
    Voir plus